Miscellaneous Local Product
Issued by NWS Hastings, NE

Home | Current Version | Previous Version | Text Only | Print | Product List | Glossary On
Versions: 1 2 3 4 5 6 7 8 9 10 11 12 13 14 15 16 17 18 19 20 21 22 23 24 25 26 27 28 29 30 31 32 33 34 35 36 37 38 39 40 41 42 43 44 45 46 47 48 49 50
033
AXUS43 KGID 200402
MISGRI

GID CWA HOURLY WEATHER ROUNDUP
NATIONAL WEATHER SERVICE HASTINGS NE
1100 PM CDT SAT AUG 19 2017

NOTE: "FAIR" INDICATES FEW OR NO CLOUDS BELOW 12,000 FEET WITH NO
SIGNIFICANT WEATHER AND/OR OBSTRUCTIONS TO VISIBILITY.

...SOUTH CENTRAL NEBRASKA...

CITY           SKY/WX    TMP DP  RH WIND       PRES   REMARKS
GRAND ISLAND   CLOUDY    83  72  69 SE20G38   29.85F THUNDER
HASTINGS       PTCLDY    78  71  79 S9        29.87R
KEARNEY        CLOUDY    77  66  68 S15       29.89R THUNDER
ORD            TSTM      71  62  73 SE10      29.87F
YORK           CLOUDY    81  72  74 S14       29.85S
AURORA         RAIN      79  73  81 S20G31    29.82F
LEXINGTON      CLEAR     78  62  58 SE10      29.85S
HOLDREGE       CLOUDY    77  61  56 SE14G20   29.87R
HEBRON         CLOUDY    82  71  70 S12       29.86S

...NEBRASKA PANHANDLE...

CITY           SKY/WX    TMP DP  RH WIND       PRES   REMARKS
CHADRON        CLEAR     74  44  34 NE10      29.90R
ALLIANCE       CLEAR     65  50  58 E5        29.93R
SCOTTSBLUFF    CLEAR     69  49  48 SE3       29.93S
SIDNEY         CLEAR     62  53  72 CALM      29.98R

...WESTERN AND NORTH CENTRAL NEBRASKA...

CITY           SKY/WX    TMP DP  RH WIND       PRES   REMARKS
VALENTINE      CLEAR     74  61  63 S10       29.86R
AINSWORTH      CLOUDY    71  62  72 S10       29.87S
ONEILL         CLOUDY    75  56  52 S13       29.82S
BROKEN BOW     CLOUDY    72  59  63 SE7       29.89F
IMPERIAL       CLEAR     75  60  59 CALM      29.89R
NORTH PLATTE   CLEAR     70  66  87 E6        29.86R
MCCOOK         CLEAR     78  59  51 SW12      29.85R

...EASTERN NEBRASKA...

CITY           SKY/WX    TMP DP  RH WIND       PRES   REMARKS
NORFOLK        TSTM      72  60  66 SW26G38   29.88S
SO SIOUX CITY  CLOUDY    73  67  81 E10       29.87R
TEKAMAH        CLOUDY    70  65  84 SE5       29.86R
COLUMBUS       CLOUDY    69  60  73 NW28G38   29.95R THUNDER
ALBION         TSTM      69  61  75 SE10G16   29.91F
OMAHA EPPLEY   CLOUDY    79  61  53 SE18      29.86F
OFFUTT AFB     CLOUDY    75  62  64 SE6       29.86F
MILLARD        CLOUDY    77  65  64 SE8       29.86F
LINCOLN        CLOUDY    81  66  60 SE15      29.84F
NEBRASKA CITY  CLOUDY    74  69  85 S7        29.90R
BEATRICE       CLOUDY    81  70  69 NW8       29.91R THUNDER
FALLS CITY     CLEAR     74  69  85 SE6       29.89F

...NORTHERN KANSAS...

CITY           SKY/WX    TMP DP  RH WIND       PRES   REMARKS
GOODLAND       CLEAR     77  54  44 SW15G24   29.95R
HILL CITY      CLOUDY    82  62  50 SW9       29.87S
NORTON         CLEAR     79  54  41 S10       29.86
PHILLIPSBURG   MOCLDY    81  63  54 SE7       29.86R
SMITH CENTER   MOCLDY    75  64  69 SE9       29.87R
HAYS           CLOUDY    82  66  58 S9        29.89R
RUSSELL        PTCLDY    82  67  60 S13       29.87R
CONCORDIA      CLOUDY    80  71  74 S17       29.87R
SALINA         PTCLDY    84  64  50 SE12      29.88R
TOPEKA         CLEAR     81  77  88 SE9       29.91S



USA.gov is the U.S. government's official web portal to all federal, state and local government web resources and services.